User: anonymous   Login
Location: Luz Observatory
(34.5000°N, 117.2833°W)
Time: 04:15:39
(UTC-08:00)
Language:

Okean 3 Rocket - Orbit

View from above orbital plane
View from above orbital plane
View from above satellite
View from above satellite

Ground track
Ground track

The orbit data is extracted from the following two-line orbital elements,

1 21398U 91039B   17324.90485943 +.00000088 +00000-0 +85649-5 0  9997
2 21398 082.5238 080.3065 0022215 032.6040 106.8537 14.79686063406046
Epoch (UTC): 20 November 2017 21:42:59
Eccentricity: 0.0022215
inclination: 82.5238°
perigee height: 615 km
apogee height: 646 km
right ascension of ascending node: 80.3065°
argument of perigee: 32.6040°
revolutions per day: 14.79686063
mean anomaly at epoch: 106.8537°
orbit number at epoch: 40604

The dashed part of the orbit path shows where the satellite is in the earth's shadow,  

DLR